sat.trackr.live / text

‹ back to catalog

2025-313AS

NORAD 67288 · 2025-313AS

PAYLOAD ACTIVE UNKNOWN

§ Identity

Operator
Country
TBD
Launch date
2025-12-28
Launch site
VOSTO
Launch vehicle
Mass (kg)
RCS (m²)

External: N2YO · Heavens-Above · Gunter

§ Orbital elements

Epoch: 2026-05-25T03:22:28.972704Z

Period
94.56 min
Inclination
97.3927°
Eccentricity
0.0013003
Mean motion
15.22871720 rev/d
Perigee alt
488.2 km
Apogee alt
506.1 km
Semi-major
6,875.3 km
B*
2.1180e-4
RAAN
220.2609°
Arg perigee
74.3784°
Mean anomaly
285.8887°
Rev number
2,245

§ Raw data

2025-313AS1 67288U 25313AS  26145.14061311  .00004902  00000+0  21180-3 0  99992 67288  97.3927 220.2609 0013003  74.3784 285.8887 15.22871720 22455

JSON: /api/v1/satellites/67288 · /tle

For live sub-satellite position, see the globe view (requires WebGL).

§ Visibility from observer

Set your observer location to see the next 7 days of passes ≥ 10°. The values pass through the URL so the page stays shareable.

No JS? Fill the form by hand. The geolocation button needs JavaScript.